Slidell, LA

4:17 AM CDT on April 28, 2017 (GMT -0500)
Slidell

Weather History for KASD - November, 2013

Change the Weather History Date:

Wednesday, November 20, 2013

  Actual Average (KNEW) Record (KNEW)
Temperature  
Mean Temperature 54 °F -  
Max Temperature 72 °F 68 °F 84 °F (1986)
Min Temperature 37 °F 55 °F 30 °F (1968)
Degree Days  
Heating Degree Days 10    
Growing Degree Days 4 (Base 50)    
Moisture  
Dew Point 45 °F    
Average Humidity 74    
Maximum Humidity 93    
Minimum Humidity 37    
Precipitation  
Precipitation 0.00 in - - ()
Sea Level Pressure  
Sea Level Pressure 30.09 in    
Wind  
Wind Speed 2 mph (NE)    
Max Wind Speed 6 mph    
Max Gust Speed -    
Visibility 10 miles    
Events      
Averages and records for this station are not official NWS values.
T = Trace of Precipitation, MM = Missing Value Source: NWS Daily Summary

Daily Weather History Graph

Daily Weather History Graph

Search for Another Location

Airport or City:

Trip Planner

Search our weather history database for the weather conditions in past years. The results will help you decide how hot, cold, wet, or windy it might be!

Date:

Astronomy

Nov. 20, 2013 Rise Set
Actual Time 6:29 AM CST 5:00 PM CST
Civil Twilight 6:03 AM CST 5:26 PM CST
Nautical Twilight 5:34 AM CST 5:55 PM CST
Astronomical Twilight 5:05 AM CST 6:23 PM CST
Moon 7:43 PM CST (11/20) 8:54 AM CST (11/20)
Length of Visible Light 11h 22m
Length of Day
10h 30m
Waning Gibbous, 91% of the Moon is Illuminated
Nov 20
Waning Gibbous
Nov 25
Last Quarter
Dec 2
New
Dec 9
First Quarter
Dec 17
Full

Hourly Weather History & Observations

Time (CST) Temp. Windchill Dew Point Humidity Pressure Visibility Wind Dir Wind Speed Gust Speed Precip Events Conditions
12:53 AM 41.0 °F - 37.0 °F 86% 30.08 in 10.0 mi Calm Calm - N/A   Clear
1:53 AM 39.0 °F - 36.0 °F 89% 30.07 in 10.0 mi Calm Calm - N/A   Clear
2:53 AM 39.0 °F 36.8 °F 35.1 °F 86% 30.08 in 10.0 mi North 3.5 mph - N/A   Clear
3:53 AM 37.9 °F 35.5 °F 34.0 °F 86% 30.08 in 10.0 mi North 3.5 mph - N/A   Clear
4:53 AM 37.9 °F - 34.0 °F 86% 30.08 in 10.0 mi Calm Calm - N/A   Clear
5:53 AM 37.0 °F 34.5 °F 34.0 °F 89% 30.09 in 10.0 mi NNE 3.5 mph - N/A   Clear
6:53 AM 37.9 °F 35.5 °F 34.0 °F 86% 30.11 in 10.0 mi North 3.5 mph - N/A   Clear
7:53 AM 45.0 °F 42.6 °F 37.0 °F 74% 30.12 in 10.0 mi North 4.6 mph - N/A   Clear
8:53 AM 53.1 °F - 39.0 °F 59% 30.12 in 10.0 mi NE 4.6 mph - N/A   Clear
9:53 AM 60.1 °F - 43.0 °F 53% 30.12 in 10.0 mi NE 3.5 mph - N/A   Clear
10:53 AM 64.9 °F - 48.0 °F 54% 30.11 in 10.0 mi NE 5.8 mph - N/A   Clear
11:53 AM 69.1 °F - 46.9 °F 45% 30.08 in 10.0 mi Calm Calm - N/A   Clear
12:53 PM 71.1 °F - 46.0 °F 41% 30.05 in 10.0 mi Calm Calm - N/A   Clear
1:53 PM 72.0 °F - 44.1 °F 37% 30.04 in 10.0 mi Calm Calm - N/A   Clear
2:53 PM 72.0 °F - 48.9 °F 44% 30.03 in 10.0 mi Calm Calm - N/A   Clear
3:53 PM 69.1 °F - 53.1 °F 57% 30.05 in 10.0 mi Calm Calm - N/A   Clear
4:53 PM 64.0 °F - 54.0 °F 70% 30.07 in 10.0 mi Calm Calm - N/A   Clear
5:53 PM 60.1 °F - 55.0 °F 83% 30.09 in 10.0 mi SE 4.6 mph - N/A   Clear
6:53 PM 61.0 °F - 57.0 °F 87% 30.10 in 10.0 mi ESE 3.5 mph - N/A   Clear
7:53 PM 60.1 °F - 57.0 °F 90% 30.10 in 10.0 mi Calm Calm - N/A   Clear
8:53 PM 57.0 °F - 55.0 °F 93% 30.12 in 10.0 mi Calm Calm - N/A   Clear
9:53 PM 55.0 °F - 53.1 °F 93% 30.12 in 9.0 mi Calm Calm - N/A   Clear
10:53 PM 55.0 °F - 53.1 °F 93% 30.11 in 8.0 mi Calm Calm - N/A   Clear
11:53 PM 53.1 °F - 51.1 °F 93% 30.11 in 8.0 mi NNE 3.5 mph - N/A   Mostly Cloudy